sat.trackr.live / text

‹ back to catalog

STARLINK-4373

NORAD 53219 · 2022-084AG

PAYLOAD ACTIVE UNKNOWN

§ Identity

Operator
Country
US
Launch date
2022-07-22
Launch site
AFWTR
Launch vehicle
Mass (kg)
RCS (m²)

Purposes: comms

External: N2YO · Heavens-Above · Gunter

§ Orbital elements

Epoch: 2026-09-20T03:28:24.088800Z

Period
93.91 min
Inclination
97.2841°
Eccentricity
0.0001427
Mean motion
15.33436312 rev/d
Perigee alt
464.6 km
Apogee alt
466.5 km
Semi-major
6,843.7 km
B*
1.3574e-5
RAAN
318.7956°
Arg perigee
92.1640°
Mean anomaly
267.9766°
Rev number
22,869

§ Raw data

STARLINK-43731 53219U 22084AG  26263.14472325  .00000363  00000+0  13574-4 0  99982 53219  97.2841 318.7956 0001427  92.1640 267.9766 15.33436312228699

JSON: /api/v1/satellites/53219 · /tle

For live sub-satellite position, see the globe view (requires WebGL).

§ Visibility from observer

Set your observer location to see the next 7 days of passes ≥ 10°. The values pass through the URL so the page stays shareable.

No JS? Fill the form by hand. The geolocation button needs JavaScript.